,,Stat6,,Stat2,,Stat8,,Stat9,,Stat10,,Wind1,,Wind1,
time,status,PA1M_AVG,status,PR1M_SUM,status,RH1M_AVG,status,SR1M_AVG,status,TA1M_AVG,status,W1dAve1m,status,W1sAve1m,
2008-12-07, 00:00:00,VALID,918.055,VALID,0,VALID,100,VALID,-0.101885,VALID,19.577,VALID,2,VALID,0,
2008-12-07, 00:01:00,VALID,918.042,VALID,0,VALID,100,VALID,-0.0509425,VALID,19.5862,VALID,23,VALID,0,
2008-12-07, 00:02:00,VALID,918.04,VALID,0,VALID,100,VALID,-0.101885,VALID,19.589,VALID,24,VALID,0,
2008-12-07, 00:03:00,VALID,918.02,VALID,0,VALID,100,VALID,-0.0849042,VALID,19.6217,VALID,24,VALID,0,
2008-12-07, 00:04:00,VALID,918.015,VALID,0,VALID,100,VALID,-0.0849042,VALID,19.6449,VALID,22,VALID,0,
2008-12-07, 00:05:00,VALID,918.011,VALID,0,VALID,100,VALID,-0.0849042,VALID,19.6484,VALID,23,VALID,0,
2008-12-07, 00:06:00,VALID,918.008,VALID,0,VALID,100,VALID,-0.101885,VALID,19.6581,VALID,26,VALID,0,
2008-12-07, 00:07:00,VALID,918.007,VALID,0,VALID,100,VALID,-0.0509425,VALID,19.6768,VALID,27,VALID,0,
2008-12-07, 00:08:00,VALID,918.006,VALID,0,VALID,100,VALID,0,VALID,19.6766,VALID,27,VALID,0,
2008-12-07, 00:09:00,VALID,917.993,VALID,0,VALID,100,VALID,-0.0169808,VALID,19.6863,VALID,28,VALID,0,
2008-12-07, 00:10:00,VALID,917.964,VALID,0,VALID,100,VALID,-0.0339617,VALID,19.6928,VALID,27,VALID,0,
2008-12-07, 00:11:00,VALID,917.958,VALID,0,VALID,100,VALID,0.0339617,VALID,19.6928,VALID,20,VALID,0.0878906,
2008-12-07, 00:12:00,VALID,917.937,VALID,0,VALID,100,VALID,0.0509425,VALID,19.6798,VALID,21,VALID,0.0890625,
2008-12-07, 00:13:00,VALID,917.913,VALID,0,VALID,100,VALID,0.0169808,VALID,19.6501,VALID,2,VALID,0.0957031,
2008-12-07, 00:14:00,VALID,917.887,VALID,0,VALID,100,VALID,0.0339617,VALID,19.6274,VALID,20,VALID,0.00319602,
2008-12-07, 00:15:00,VALID,917.854,VALID,0,VALID,100,VALID,0.0169808,VALID,19.6177,VALID,1,VALID,0.223514,
2008-12-07, 00:16:00,VALID,917.828,VALID,0,VALID,100,VALID,0.0169808,VALID,19.6085,VALID,16,VALID,0,
2008-12-07, 00:17:00,VALID,917.813,VALID,0,VALID,100,VALID,-0.0169808,VALID,19.6149,VALID,26,VALID,0,
2008-12-07, 00:18:00,VALID,917.785,VALID,0,VALID,100,VALID,0.0169808,VALID,19.6147,VALID,24,VALID,0,
2008-12-07, 00:19:00,VALID,917.771,VALID,0,VALID,100,VALID,0,VALID,19.5955,VALID,7,VALID,0,
2008-12-07, 00:20:00,VALID,917.766,VALID,0,VALID,100,VALID,0,VALID,19.5955,VALID,13,VALID,0,
2008-12-07, 00:21:00,VALID,917.78,VALID,0,VALID,100,VALID,0,VALID,19.5793,VALID,18,VALID,0,
2008-12-07, 00:22:00,VALID,917.769,VALID,0,VALID,100,VALID,0.0339617,VALID,19.5887,VALID,18,VALID,0,
2008-12-07, 00:23:00,VALID,917.755,VALID,0,VALID,100,VALID,0,VALID,19.5922,VALID,17,VALID,0,
2008-12-07, 00:24:00,VALID,917.76,VALID,0,VALID,100,VALID,-0.0169808,VALID,19.576,VALID,13,VALID,0,
2008-12-07, 00:25:00,VALID,917.763,VALID,0,VALID,100,VALID,0.0169808,VALID,19.563,VALID,16,VALID,0,
2008-12-07, 00:26:00,VALID,917.769,VALID,0,VALID,100,VALID,-0.0169808,VALID,19.5665,VALID,11,VALID,0,
2008-12-07, 00:27:00,VALID,917.758,VALID,0,VALID,100,VALID,-0.0169808,VALID,19.5568,VALID,14,VALID,0,
2008-12-07, 00:28:00,VALID,917.76,VALID,0,VALID,100,VALID,0,VALID,19.563,VALID,21,VALID,0,
2008-12-07, 00:29:00,VALID,917.758,VALID,0,VALID,100,VALID,0,VALID,19.5531,VALID,17,VALID,0.457508,
2008-12-07, 00:30:00,VALID,917.747,VALID,0,VALID,100,VALID,0.0169808,VALID,19.5338,VALID,360,VALID,0.0166016,
2008-12-07, 00:31:00,VALID,917.748,VALID,0,VALID,100,VALID,0,VALID,19.5046,VALID,8,VALID,0.674701,
2008-12-07, 00:32:00,VALID,917.736,VALID,0,VALID,100,VALID,-0.0339617,VALID,19.4757,VALID,8,VALID,0.230283,
2008-12-07, 00:33:00,VALID,917.745,VALID,0,VALID,100,VALID,0.0169808,VALID,19.4625,VALID,15,VALID,0.496761,
2008-12-07, 00:34:00,VALID,917.773,VALID,0,VALID,100,VALID,-0.0169808,VALID,19.4689,VALID,19,VALID,0.0327785,
2008-12-07, 00:35:00,VALID,917.776,VALID,0,VALID,100,VALID,0.0339617,VALID,19.462,VALID,20,VALID,0,
2008-12-07, 00:36:00,VALID,917.795,VALID,0,VALID,100,VALID,0,VALID,19.443,VALID,356,VALID,0.0012718,
2008-12-07, 00:37:00,VALID,917.814,VALID,0,VALID,100,VALID,0.0169808,VALID,19.4397,VALID,14,VALID,0,
2008-12-07, 00:38:00,VALID,917.834,VALID,0,VALID,100,VALID,-0.0169808,VALID,19.4402,VALID,16,VALID,0.0414931,
2008-12-07, 00:39:00,VALID,917.851,VALID,0,VALID,100,VALID,-0.0339617,VALID,19.4235,VALID,15,VALID,0,
2008-12-07, 00:40:00,VALID,917.87,VALID,0,VALID,100,VALID,-0.0169808,VALID,19.4363,VALID,6,VALID,0.00114329,
2008-12-07, 00:41:00,VALID,917.867,VALID,0,VALID,100,VALID,0,VALID,19.4235,VALID,9,VALID,0,
2008-12-07, 00:42:00,VALID,917.874,VALID,0,VALID,100,VALID,0,VALID,19.4006,VALID,16,VALID,0,
2008-12-07, 00:43:00,VALID,917.876,VALID,0,VALID,100,VALID,-0.0169808,VALID,19.3946,VALID,16,VALID,0,
2008-12-07, 00:44:00,VALID,917.887,VALID,0,VALID,100,VALID,0.0169808,VALID,19.4041,VALID,15,VALID,0,
2008-12-07, 00:45:00,VALID,917.904,VALID,0,VALID,100,VALID,0,VALID,19.4105,VALID,11,VALID,0.0995164,
2008-12-07, 00:46:00,VALID,917.905,VALID,0,VALID,100,VALID,0,VALID,19.4003,VALID,16,VALID,0.407617,
2008-12-07, 00:47:00,VALID,917.901,VALID,0,VALID,100,VALID,0,VALID,19.3941,VALID,360,VALID,0.14226,
2008-12-07, 00:48:00,VALID,917.893,VALID,0,VALID,100,VALID,-0.0509425,VALID,19.3878,VALID,11,VALID,0.0370164,
2008-12-07, 00:49:00,VALID,917.878,VALID,0,VALID,100,VALID,-0.0169808,VALID,19.3943,VALID,9,VALID,0.531436,
2008-12-07, 00:50:00,VALID,917.872,VALID,0,VALID,100,VALID,0,VALID,19.3941,VALID,354,VALID,0.256944,
2008-12-07, 00:51:00,VALID,917.849,VALID,0,VALID,100,VALID,0,VALID,19.3779,VALID,10,VALID,0.219922,
2008-12-07, 00:52:00,VALID,917.841,VALID,0,VALID,100,VALID,0,VALID,19.3878,VALID,3,VALID,0.0397727,
2008-12-07, 00:53:00,VALID,917.815,VALID,0,VALID,100,VALID,0,VALID,19.3809,VALID,13,VALID,0,
2008-12-07, 00:54:00,VALID,917.787,VALID,0,VALID,100,VALID,0,VALID,19.3649,VALID,354,VALID,0.271763,
2008-12-07, 00:55:00,VALID,917.756,VALID,0,VALID,100,VALID,0.0169808,VALID,19.3457,VALID,9,VALID,1.04742,
2008-12-07, 00:56:00,VALID,917.741,VALID,0,VALID,100,VALID,0,VALID,19.3162,VALID,24,VALID,0.26582,
2008-12-07, 00:57:00,VALID,917.72,VALID,0,VALID,100,VALID,0.0169808,VALID,19.3,VALID,24,VALID,0.784455,
2008-12-07, 00:58:00,VALID,917.708,VALID,0,VALID,100,VALID,0,VALID,19.2903,VALID,26,VALID,0.829613,
2008-12-07, 00:59:00,VALID,917.719,VALID,0,VALID,100,VALID,0.0339617,VALID,19.3095,VALID,2,VALID,0.474564,
2008-12-07, 01:00:00,VALID,917.699,VALID,0,VALID,100,VALID,0.0679233,VALID,19.2863,VALID,5,VALID,0.513445,
2008-12-07, 01:01:00,VALID,917.695,VALID,0,VALID,100,VALID,0.0339617,VALID,19.2728,VALID,353,VALID,0.13125,
2008-12-07, 01:02:00,VALID,917.67,VALID,0,VALID,100,VALID,0,VALID,19.2796,VALID,15,VALID,0.718576,
2008-12-07, 01:03:00,VALID,917.65,VALID,0,VALID,100,VALID,0,VALID,19.284,VALID,360,VALID,0.351926,
2008-12-07, 01:04:00,VALID,917.635,VALID,0,VALID,100,VALID,0,VALID,19.2511,VALID,28,VALID,0.453125,
2008-12-07, 01:05:00,VALID,917.627,VALID,0,VALID,100,VALID,0,VALID,19.2481,VALID,20,VALID,0.0168679,
2008-12-07, 01:06:00,VALID,917.616,VALID,0,VALID,100,VALID,0,VALID,19.2481,VALID,14,VALID,0.330729,
2008-12-07, 01:07:00,VALID,917.592,VALID,0,VALID,100,VALID,-0.0679233,VALID,19.2324,VALID,29,VALID,1.53566,
2008-12-07, 01:08:00,VALID,917.575,VALID,0,VALID,100,VALID,-0.135847,VALID,19.2204,VALID,27,VALID,1.28943,
2008-12-07, 01:09:00,VALID,917.565,VALID,0,VALID,100,VALID,-0.118866,VALID,19.2104,VALID,10,VALID,1.01283,
2008-12-07, 01:10:00,VALID,917.538,VALID,0,VALID,100,VALID,-0.118866,VALID,19.1839,VALID,13,VALID,0.852865,
2008-12-07, 01:11:00,VALID,917.528,VALID,0,VALID,100,VALID,-0.101885,VALID,19.1912,VALID,8,VALID,0.659226,
2008-12-07, 01:12:00,VALID,917.512,VALID,0,VALID,100,VALID,-0.101885,VALID,19.1779,VALID,9,VALID,0.183966,
2008-12-07, 01:13:00,VALID,917.497,VALID,0,VALID,100,VALID,-0.101885,VALID,19.1946,VALID,23,VALID,0.199049,
2008-12-07, 01:14:00,VALID,917.479,VALID,0,VALID,100,VALID,-0.101885,VALID,19.1976,VALID,9,VALID,0.581759,
2008-12-07, 01:15:00,VALID,917.454,VALID,0,VALID,100,VALID,-0.135847,VALID,19.1687,VALID,16,VALID,0.743886,
2008-12-07, 01:16:00,VALID,917.448,VALID,0,VALID,100,VALID,-0.135847,VALID,19.1427,VALID,15,VALID,0.819293,
2008-12-07, 01:17:00,VALID,917.449,VALID,0,VALID,100,VALID,-0.118866,VALID,19.1395,VALID,16,VALID,0.296165,
2008-12-07, 01:18:00,VALID,917.446,VALID,0,VALID,100,VALID,-0.101885,VALID,19.1522,VALID,16,VALID,0.326451,
2008-12-07, 01:19:00,VALID,917.432,VALID,0,VALID,100,VALID,-0.101885,VALID,19.136,VALID,2,VALID,0.603261,
2008-12-07, 01:20:00,VALID,917.444,VALID,0,VALID,100,VALID,-0.101885,VALID,19.1258,VALID,16,VALID,0.0446671,
2008-12-07, 01:21:00,VALID,917.427,VALID,0,VALID,100,VALID,-0.118866,VALID,19.123,VALID,16,VALID,0.715701,
2008-12-07, 01:22:00,VALID,917.417,VALID,0,VALID,100,VALID,-0.0679233,VALID,19.1163,VALID,11,VALID,0.466518,
2008-12-07, 01:23:00,VALID,917.406,VALID,0,VALID,100,VALID,0,VALID,19.1084,VALID,350,VALID,0.221289,
2008-12-07, 01:24:00,VALID,917.385,VALID,0,VALID,100,VALID,0,VALID,19.0991,VALID,352,VALID,0.512649,
2008-12-07, 01:25:00,VALID,917.366,VALID,0,VALID,100,VALID,-0.0169808,VALID,19.0759,VALID,23,VALID,0.644622,
2008-12-07, 01:26:00,VALID,917.365,VALID,0,VALID,100,VALID,-0.0169808,VALID,19.0729,VALID,23,VALID,0.0589489,
2008-12-07, 01:27:00,VALID,917.361,VALID,0,VALID,100,VALID,-0.0169808,VALID,19.0659,VALID,2,VALID,0.145349,
2008-12-07, 01:28:00,VALID,917.344,VALID,0,VALID,100,VALID,0.0169808,VALID,19.0497,VALID,359,VALID,0.00273437,
2008-12-07, 01:29:00,VALID,917.334,VALID,0,VALID,100,VALID,-0.0169808,VALID,19.0567,VALID,355,VALID,0.0901163,
2008-12-07, 01:30:00,VALID,917.314,VALID,0,VALID,100,VALID,0.0169808,VALID,19.0562,VALID,21,VALID,0.232195,
2008-12-07, 01:31:00,VALID,917.302,VALID,0,VALID,100,VALID,0,VALID,19.0697,VALID,31,VALID,0.253729,
2008-12-07, 01:32:00,VALID,917.297,VALID,0,VALID,100,VALID,-0.0169808,VALID,19.0697,VALID,18,VALID,0.684696,
2008-12-07, 01:33:00,VALID,917.28,VALID,0,VALID,100,VALID,-0.0169808,VALID,19.0632,VALID,28,VALID,0.591992,
2008-12-07, 01:34:00,VALID,917.258,VALID,0,VALID,100,VALID,-0.0509425,VALID,19.0662,VALID,18,VALID,0.736192,
2008-12-07, 01:35:00,VALID,917.251,VALID,0,VALID,100,VALID,0,VALID,19.0787,VALID,331,VALID,0.150923,
2008-12-07, 01:36:00,VALID,917.23,VALID,0,VALID,100,VALID,-0.0169808,VALID,19.0759,VALID,317,VALID,0.00111607,
2008-12-07, 01:37:00,VALID,917.207,VALID,0,VALID,100,VALID,0,VALID,19.0891,VALID,339,VALID,0.00399306,
2008-12-07, 01:38:00,VALID,917.199,VALID,0,VALID,100,VALID,0,VALID,19.0984,VALID,9,VALID,0.00177557,
2008-12-07, 01:39:00,VALID,917.193,VALID,0,VALID,100,VALID,0,VALID,19.0919,VALID,17,VALID,0.308203,
2008-12-07, 01:40:00,VALID,917.165,VALID,0,VALID,100,VALID,0.0169808,VALID,19.0819,VALID,11,VALID,0.662348,
2008-12-07, 01:41:00,VALID,917.151,VALID,0,VALID,100,VALID,0.0339617,VALID,19.0884,VALID,17,VALID,0.4016,
2008-12-07, 01:42:00,VALID,917.134,VALID,0,VALID,100,VALID,0,VALID,19.0984,VALID,17,VALID,0.110156,
2008-12-07, 01:43:00,VALID,917.126,VALID,0,VALID,100,VALID,0,VALID,19.1084,VALID,9,VALID,0,
2008-12-07, 01:44:00,VALID,917.105,VALID,0,VALID,100,VALID,0,VALID,19.1183,VALID,19,VALID,1.15534,
2008-12-07, 01:45:00,VALID,917.077,VALID,0,VALID,100,VALID,0,VALID,19.1141,VALID,13,VALID,0.777344,
2008-12-07, 01:46:00,VALID,917.059,VALID,0,VALID,100,VALID,0.0169808,VALID,19.1211,VALID,11,VALID,1.10361,
2008-12-07, 01:47:00,VALID,917.042,VALID,0,VALID,100,VALID,0,VALID,19.1181,VALID,8,VALID,1.01315,
2008-12-07, 01:48:00,VALID,917.012,VALID,0,VALID,100,VALID,0,VALID,19.1011,VALID,9,VALID,0.0507813,
2008-12-07, 01:49:00,VALID,916.991,VALID,0,VALID,100,VALID,0,VALID,19.0981,VALID,4,VALID,0.283458,
2008-12-07, 01:50:00,VALID,916.979,VALID,0,VALID,100,VALID,0,VALID,19.0849,VALID,4,VALID,0.666903,
2008-12-07, 01:51:00,VALID,916.951,VALID,0.2,VALID,100,VALID,0.0169808,VALID,19.0919,VALID,15,VALID,0.335211,
2008-12-07, 01:52:00,VALID,916.947,VALID,0,VALID,100,VALID,-0.0509425,VALID,19.0931,VALID,4,VALID,0.533537,
2008-12-07, 01:53:00,VALID,916.92,VALID,0,VALID,100,VALID,-0.101885,VALID,19.0966,VALID,8,VALID,0.154154,
2008-12-07, 01:54:00,VALID,916.912,VALID,0,VALID,100,VALID,-0.0849042,VALID,19.0901,VALID,10,VALID,0.131055,
2008-12-07, 01:55:00,VALID,916.889,VALID,0,VALID,100,VALID,-0.101885,VALID,19.0839,VALID,11,VALID,0.0280107,
2008-12-07, 01:56:00,VALID,916.878,VALID,0,VALID,100,VALID,-0.135847,VALID,19.0804,VALID,9,VALID,0.272569,
2008-12-07, 01:57:00,VALID,916.866,VALID,0,VALID,100,VALID,-0.118866,VALID,19.0709,VALID,7,VALID,0,
2008-12-07, 01:58:00,VALID,916.848,VALID,0,VALID,100,VALID,-0.101885,VALID,19.0637,VALID,16,VALID,0.363104,
2008-12-07, 01:59:00,VALID,916.831,VALID,0,VALID,100,VALID,-0.101885,VALID,19.0709,VALID,12,VALID,0.136364,
2008-12-07, 02:00:00,VALID,916.815,VALID,0,VALID,100,VALID,-0.135847,VALID,19.0776,VALID,25,VALID,0.156076,
2008-12-07, 02:01:00,VALID,916.821,VALID,0,VALID,100,VALID,-0.101885,VALID,19.0711,VALID,358,VALID,0.218936,
2008-12-07, 02:02:00,VALID,916.821,VALID,0,VALID,100,VALID,-0.135847,VALID,19.0711,VALID,358,VALID,0.272879,
2008-12-07, 02:03:00,VALID,916.816,VALID,0,VALID,100,VALID,-0.152827,VALID,19.0681,VALID,20,VALID,0.256904,
2008-12-07, 02:04:00,VALID,916.8,VALID,0,VALID,100,VALID,-0.101885,VALID,19.0482,VALID,17,VALID,0.646802,
2008-12-07, 02:05:00,VALID,916.795,VALID,0,VALID,100,VALID,-0.118866,VALID,19.0744,VALID,18,VALID,0.101763,
2008-12-07, 02:06:00,VALID,916.776,VALID,0,VALID,100,VALID,-0.118866,VALID,19.0609,VALID,7,VALID,0.00223214,
2008-12-07, 02:07:00,VALID,916.777,VALID,0,VALID,100,VALID,-0.0509425,VALID,19.0505,VALID,2,VALID,0.150618,
2008-12-07, 02:08:00,VALID,916.769,VALID,0,VALID,100,VALID,-0.0169808,VALID,19.0565,VALID,11,VALID,0.15734,
2008-12-07, 02:09:00,VALID,916.764,VALID,0,VALID,100,VALID,0,VALID,19.05,VALID,24,VALID,0.234375,
2008-12-07, 02:10:00,VALID,916.765,VALID,0,VALID,100,VALID,0,VALID,19.05,VALID,359,VALID,0.147321,
2008-12-07, 02:11:00,VALID,916.762,VALID,0,VALID,100,VALID,0,VALID,19.043,VALID,333,VALID,0.310547,
2008-12-07, 02:12:00,VALID,916.754,VALID,0,VALID,100,VALID,0,VALID,19.0425,VALID,4,VALID,0.00223214,
2008-12-07, 02:13:00,VALID,916.758,VALID,0,VALID,100,VALID,-0.0169808,VALID,19.0625,VALID,13,VALID,0,
2008-12-07, 02:14:00,VALID,916.756,VALID,0,VALID,100,VALID,0,VALID,19.0555,VALID,6,VALID,0,
2008-12-07, 02:15:00,VALID,916.755,VALID,0,VALID,100,VALID,-0.0169808,VALID,19.0527,VALID,10,VALID,0,
2008-12-07, 02:16:00,VALID,916.744,VALID,0,VALID,100,VALID,0,VALID,19.0697,VALID,15,VALID,0,
2008-12-07, 02:17:00,VALID,916.74,VALID,0,VALID,100,VALID,0,VALID,19.056,VALID,15,VALID,0,
2008-12-07, 02:18:00,VALID,916.736,VALID,0,VALID,100,VALID,0.0169808,VALID,19.046,VALID,4,VALID,0,
2008-12-07, 02:19:00,VALID,916.739,VALID,0,VALID,100,VALID,0,VALID,19.0532,VALID,4,VALID,0,
2008-12-07, 02:20:00,VALID,916.734,VALID,0,VALID,100,VALID,0.0169808,VALID,19.0497,VALID,348,VALID,0.146076,
2008-12-07, 02:21:00,VALID,916.724,VALID,0,VALID,100,VALID,0,VALID,19.0363,VALID,10,VALID,0.0635653,
2008-12-07, 02:22:00,VALID,916.73,VALID,0,VALID,100,VALID,0.0169808,VALID,19.0492,VALID,350,VALID,0.0384766,
2008-12-07, 02:23:00,VALID,916.722,VALID,0,VALID,100,VALID,0,VALID,19.0495,VALID,348,VALID,0.00053267,
2008-12-07, 02:24:00,VALID,916.722,VALID,0,VALID,100,VALID,0.0169808,VALID,19.0662,VALID,351,VALID,0,
2008-12-07, 02:25:00,VALID,916.718,VALID,0,VALID,100,VALID,0,VALID,19.0757,VALID,357,VALID,0.0150534,
2008-12-07, 02:26:00,VALID,916.711,VALID,0,VALID,100,VALID,0.0169808,VALID,19.072,VALID,8,VALID,0.41654,
2008-12-07, 02:27:00,VALID,916.707,VALID,0,VALID,100,VALID,-0.0169808,VALID,19.0752,VALID,4,VALID,0,
2008-12-07, 02:28:00,VALID,916.718,VALID,0,VALID,100,VALID,0,VALID,19.0784,VALID,10,VALID,0.00130208,
2008-12-07, 02:29:00,VALID,916.733,VALID,0,VALID,100,VALID,0,VALID,19.1118,VALID,351,VALID,0.021439,
2008-12-07, 02:30:00,VALID,916.726,VALID,0,VALID,100,VALID,0.0169808,VALID,19.0787,VALID,343,VALID,0.024891,
2008-12-07, 02:31:00,VALID,916.728,VALID,0,VALID,100,VALID,-0.0169808,VALID,19.0951,VALID,340,VALID,0,
2008-12-07, 02:32:00,VALID,916.734,VALID,0,VALID,100,VALID,0.0169808,VALID,19.1246,VALID,10,VALID,0,
2008-12-07, 02:33:00,VALID,916.721,VALID,0,VALID,100,VALID,-0.0169808,VALID,19.1211,VALID,11,VALID,0,
2008-12-07, 02:34:00,VALID,916.723,VALID,0,VALID,100,VALID,0,VALID,19.1248,VALID,355,VALID,0,
2008-12-07, 02:35:00,VALID,916.714,VALID,0,VALID,100,VALID,0,VALID,19.1343,VALID,3,VALID,0,
2008-12-07, 02:36:00,VALID,916.704,VALID,0,VALID,100,VALID,0.0169808,VALID,19.1605,VALID,23,VALID,0.236151,
2008-12-07, 02:37:00,VALID,916.701,VALID,0,VALID,100,VALID,0.0509425,VALID,19.1535,VALID,17,VALID,0,
2008-12-07, 02:38:00,VALID,916.702,VALID,0,VALID,100,VALID,0,VALID,19.1565,VALID,29,VALID,0.00121528,
2008-12-07, 02:39:00,VALID,916.694,VALID,0,VALID,100,VALID,0,VALID,19.1635,VALID,25,VALID,0,
2008-12-07, 02:40:00,VALID,916.678,VALID,0,VALID,100,VALID,0,VALID,19.1725,VALID,25,VALID,0,
2008-12-07, 02:41:00,VALID,916.666,VALID,0,VALID,100,VALID,-0.0169808,VALID,19.1732,VALID,10,VALID,0,
2008-12-07, 02:42:00,VALID,916.645,VALID,0,VALID,100,VALID,0,VALID,19.1433,VALID,357,VALID,0,
2008-12-07, 02:43:00,VALID,916.638,VALID,0,VALID,100,VALID,0,VALID,19.1046,VALID,344,VALID,0.0025436,
2008-12-07, 02:44:00,VALID,916.596,VALID,0,VALID,100,VALID,0,VALID,19.0887,VALID,21,VALID,0.275856,
2008-12-07, 02:45:00,VALID,916.596,VALID,0,VALID,100,VALID,0.0169808,VALID,19.056,VALID,17,VALID,0.638963,
2008-12-07, 02:46:00,VALID,916.611,VALID,0,VALID,100,VALID,0,VALID,19.0435,VALID,13,VALID,0.575721,
2008-12-07, 02:47:00,VALID,916.613,VALID,0,VALID,100,VALID,0.0169808,VALID,19.0335,VALID,16,VALID,0.368096,
2008-12-07, 02:48:00,VALID,916.6,VALID,0,VALID,100,VALID,0.0169808,VALID,19.0138,VALID,22,VALID,0.839753,
2008-12-07, 02:49:00,VALID,916.604,VALID,0,VALID,100,VALID,0.0169808,VALID,19.0205,VALID,17,VALID,0.136896,
2008-12-07, 02:50:00,VALID,916.596,VALID,0,VALID,100,VALID,0,VALID,19.0143,VALID,349,VALID,0.3125,
2008-12-07, 02:51:00,VALID,916.589,VALID,0,VALID,100,VALID,0.0169808,VALID,19.0076,VALID,28,VALID,0.548921,
2008-12-07, 02:52:00,VALID,916.589,VALID,0,VALID,100,VALID,0.0169808,VALID,19.0038,VALID,13,VALID,1.15569,
2008-12-07, 02:53:00,VALID,916.575,VALID,0,VALID,100,VALID,0.0339617,VALID,18.9941,VALID,7,VALID,1.13754,
2008-12-07, 02:54:00,VALID,916.576,VALID,0,VALID,100,VALID,0.0169808,VALID,18.9816,VALID,10,VALID,0.253089,
2008-12-07, 02:55:00,VALID,916.56,VALID,0,VALID,100,VALID,0.0169808,VALID,18.9454,VALID,14,VALID,0.653582,
2008-12-07, 02:56:00,VALID,916.54,VALID,0,VALID,100,VALID,0,VALID,18.9492,VALID,11,VALID,0.00111607,
2008-12-07, 02:57:00,VALID,916.523,VALID,0,VALID,100,VALID,-0.0169808,VALID,18.9362,VALID,8,VALID,0.403783,
2008-12-07, 02:58:00,VALID,916.507,VALID,0,VALID,100,VALID,0.0339617,VALID,18.923,VALID,18,VALID,0.931771,
2008-12-07, 02:59:00,VALID,916.489,VALID,0,VALID,100,VALID,0.0169808,VALID,18.9098,VALID,360,VALID,0.123512,
2008-12-07, 03:00:00,VALID,916.487,VALID,0,VALID,100,VALID,0.0169808,VALID,18.9295,VALID,18,VALID,0.416788,
2008-12-07, 03:01:00,VALID,916.487,VALID,0,VALID,100,VALID,0.0169808,VALID,18.9265,VALID,29,VALID,1.21931,
2008-12-07, 03:02:00,VALID,916.464,VALID,0,VALID,100,VALID,0.0339617,VALID,18.9163,VALID,26,VALID,1.31993,
2008-12-07, 03:03:00,VALID,916.457,VALID,0,VALID,100,VALID,0.0339617,VALID,18.91,VALID,14,VALID,1.37824,
2008-12-07, 03:04:00,VALID,916.446,VALID,0,VALID,100,VALID,0,VALID,18.9135,VALID,359,VALID,0.263081,
2008-12-07, 03:05:00,VALID,916.437,VALID,0,VALID,100,VALID,0,VALID,18.9072,VALID,15,VALID,0.443407,
2008-12-07, 03:06:00,VALID,916.431,VALID,0,VALID,100,VALID,0,VALID,18.8968,VALID,14,VALID,0.105755,
2008-12-07, 03:07:00,VALID,916.415,VALID,0,VALID,100,VALID,-0.0339617,VALID,18.9077,VALID,6,VALID,0.272656,
2008-12-07, 03:08:00,VALID,916.396,VALID,0,VALID,100,VALID,-0.0679233,VALID,18.8917,VALID,7,VALID,0.074929,
2008-12-07, 03:09:00,VALID,916.384,VALID,0,VALID,100,VALID,-0.0679233,VALID,18.8883,VALID,22,VALID,0.028054,
2008-12-07, 03:10:00,VALID,916.379,VALID,0,VALID,100,VALID,-0.0679233,VALID,18.8913,VALID,21,VALID,0,
2008-12-07, 03:11:00,VALID,916.35,VALID,0,VALID,100,VALID,-0.0679233,VALID,18.898,VALID,7,VALID,0.385352,
2008-12-07, 03:12:00,VALID,916.349,VALID,0,VALID,100,VALID,-0.0849042,VALID,18.8917,VALID,18,VALID,0.0403963,
2008-12-07, 03:13:00,VALID,916.337,VALID,0,VALID,100,VALID,-0.0849042,VALID,18.8917,VALID,16,VALID,0,
2008-12-07, 03:14:00,VALID,916.352,VALID,0,VALID,100,VALID,-0.0339617,VALID,18.888,VALID,6,VALID,0.152699,
2008-12-07, 03:15:00,VALID,916.346,VALID,0,VALID,100,VALID,-0.0849042,VALID,18.898,VALID,4,VALID,0,
2008-12-07, 03:16:00,VALID,916.358,VALID,0,VALID,100,VALID,-0.0509425,VALID,18.9045,VALID,13,VALID,0,
2008-12-07, 03:17:00,VALID,916.355,VALID,0,VALID,100,VALID,-0.0679233,VALID,18.9114,VALID,359,VALID,0.110085,
2008-12-07, 03:18:00,VALID,916.36,VALID,0,VALID,100,VALID,-0.0509425,VALID,18.9047,VALID,5,VALID,0.518111,
2008-12-07, 03:19:00,VALID,916.356,VALID,0,VALID,100,VALID,-0.0339617,VALID,18.911,VALID,11,VALID,0.329215,
2008-12-07, 03:20:00,VALID,916.353,VALID,0,VALID,100,VALID,-0.0849042,VALID,18.9307,VALID,7,VALID,0.179688,
2008-12-07, 03:21:00,VALID,916.341,VALID,0,VALID,100,VALID,-0.0679233,VALID,18.9372,VALID,11,VALID,0.37221,
2008-12-07, 03:22:00,VALID,916.328,VALID,0,VALID,100,VALID,0,VALID,18.92,VALID,15,VALID,0,
2008-12-07, 03:23:00,VALID,916.322,VALID,0,VALID,100,VALID,0.0509425,VALID,18.9457,VALID,18,VALID,0,
2008-12-07, 03:24:00,VALID,916.297,VALID,0,VALID,100,VALID,0.0169808,VALID,18.9452,VALID,15,VALID,0,
2008-12-07, 03:25:00,VALID,916.298,VALID,0,VALID,100,VALID,0.0339617,VALID,18.9452,VALID,359,VALID,0,
2008-12-07, 03:26:00,VALID,916.285,VALID,0,VALID,100,VALID,0.0509425,VALID,18.9584,VALID,16,VALID,0,
2008-12-07, 03:27:00,VALID,916.283,VALID,0,VALID,100,VALID,0.0509425,VALID,18.9515,VALID,5,VALID,0,
2008-12-07, 03:28:00,VALID,916.269,VALID,0,VALID,100,VALID,0.0169808,VALID,18.9552,VALID,355,VALID,0.191406,
2008-12-07, 03:29:00,VALID,916.266,VALID,0,VALID,100,VALID,0,VALID,18.9519,VALID,18,VALID,0,
2008-12-07, 03:30:00,VALID,916.25,VALID,0,VALID,100,VALID,0.0339617,VALID,18.9749,VALID,21,VALID,0.0342685,
2008-12-07, 03:31:00,VALID,916.257,VALID,0,VALID,100,VALID,0.0339617,VALID,18.9714,VALID,9,VALID,0,
2008-12-07, 03:32:00,VALID,916.264,VALID,0,VALID,100,VALID,0.0509425,VALID,18.9776,VALID,340,VALID,0,
2008-12-07, 03:33:00,VALID,916.258,VALID,0,VALID,100,VALID,0.0169808,VALID,18.9776,VALID,338,VALID,0,
2008-12-07, 03:34:00,VALID,916.256,VALID,0,VALID,100,VALID,0.0509425,VALID,18.9876,VALID,355,VALID,0.0896662,
2008-12-07, 03:35:00,VALID,916.262,VALID,0,VALID,100,VALID,0,VALID,18.9779,VALID,344,VALID,0,
2008-12-07, 03:36:00,VALID,916.261,VALID,0,VALID,100,VALID,0.0169808,VALID,18.9844,VALID,326,VALID,0,
2008-12-07, 03:37:00,VALID,916.263,VALID,0,VALID,100,VALID,-0.0339617,VALID,18.9719,VALID,326,VALID,0,
2008-12-07, 03:38:00,VALID,916.264,VALID,0,VALID,100,VALID,-0.0849042,VALID,18.9629,VALID,337,VALID,0,
2008-12-07, 03:39:00,VALID,916.275,VALID,0,VALID,100,VALID,-0.101885,VALID,18.9666,VALID,337,VALID,0,
2008-12-07, 03:40:00,VALID,916.27,VALID,0,VALID,100,VALID,-0.118866,VALID,18.9733,VALID,337,VALID,0,
2008-12-07, 03:41:00,VALID,916.275,VALID,0,VALID,100,VALID,-0.0679233,VALID,18.9631,VALID,340,VALID,0,
2008-12-07, 03:42:00,VALID,916.273,VALID,0,VALID,100,VALID,-0.0849042,VALID,18.9696,VALID,349,VALID,0,
2008-12-07, 03:43:00,VALID,916.28,VALID,0,VALID,100,VALID,-0.0849042,VALID,18.9571,VALID,348,VALID,0,
2008-12-07, 03:44:00,VALID,916.279,VALID,0,VALID,100,VALID,-0.0849042,VALID,18.9404,VALID,4,VALID,0,
2008-12-07, 03:45:00,VALID,916.282,VALID,0,VALID,100,VALID,-0.101885,VALID,18.9309,VALID,332,VALID,0,
2008-12-07, 03:46:00,VALID,916.284,VALID,0,VALID,100,VALID,-0.0509425,VALID,18.9209,VALID,332,VALID,0,
2008-12-07, 03:47:00,VALID,916.291,VALID,0,VALID,100,VALID,-0.0849042,VALID,18.9272,VALID,332,VALID,0,